SCP
0 0 0 0 0 0 0 0 -0 0 0 0 0 0 0 0 0 0 0 0 0 0 0 0 0 0 0 0 0 0 0 0 0 0 0 0 0 0 0 0 0 0 0 0 0
0 0 0 0 0 0 0 0 -0 -0 0 0 0 0 0 0 0 0 0 0 0 0 0 0 0 0 0 0 0 0 0 0 0 0 0 0 0 0 0 0 0 0 0 0 0
0 0 0 0 0 0 0 0 0 -0 -0 0 0 0 0 0 0 0 0 -0 0 0 0 0 0 0 0 0 0 0 0 0 0 0 0 0 0 0 0 0 0 0 0 0 0
-0 -0 0 0 -0 0 0 0 0 0 -0 -0 0 0 0 0 0 0 0 -0 0 0 0 0 0 0 0 0 0 0 0 0 0 0 0 0 0 0 0 0 0 0 0 0 0
-0 -0 -0 -0 -0 -0 -0 -0 -0 -0 -0 0 0 0 0 0 0 0 0 0 0 0 0 0 0 0 0 0 0 0 0 0 0 0 0 0 0 0 0 0 0 0 0 0 0
-0 -0 -0 -0 -0 -0 -0 -0 -0 -0 -0 -0 0 0 0 0 0 0 0 0 0 0 0 0 0 0 0 0 0 0 0 0 0 0 0 0 0 0 0 0 0 0 0 0 0
0 -0 -0 -0 -0 -0 -0 -0 -0 -0 -0 0 0 0 0 0 0 0 0 0 0 0 0 0 0 0 0 0 0 0 0 0 0 0 0 0 0 0 0 0 0 0 0 0 0
0 -0 -0 -0 -0 -0 -0 -0 -0 -0 -0 -0 0 0 0 0 0 0 0 0 0 0 0 0 0 0 0 0 0 0 0 0 0 0 0 0 0 0 0 0 0 0 0 0 0
-0 -0 -0 -0 -0 -0 -0 -0 0 0 0 0 0 0 0 0 0 0 0 0 0 0 0 0 0 0 0 0 0 0 0 0 0 0 0 0 0 0 0 0 0 0 0 0 0
-0 -0 -0 -0 -0 -0 -0 0 0 0 0 0 0 0 0 0 0 0 0 0 0 0 0 0 0 0 0 0 0 0 0 0 0 0 0 0 0 0 0 0 0 0 0 0 0
0 -0 -0 -0 0 0 0 0 0 0 0 0 0 0 0 0 0 0 0 0 0 0 0 0 0 0 0 0 0 0 0 0 0 0 0 0 0 0 0 0 0 0 0 0 0
-0 -0 -0 -0 0 0 0 0 0 0 0 0 0 -0 0 0 0 0 0 0 0 0 0 0 0 0 0 0 0 0 0 0 0 0 0 0 0 0 0 0 0 0 0 0 0
-0 -0 -0 -0 0 0 0 0 0 0 0 0 0 0 0 0 0 0 0 0 0 0 0 0 0 0 0 0 0 0 0 0 0 0 0 0 0 0 0 0 0 0 0 0 0
-0 -0 0 -0 0 0 0 0 0 0 0 0 0 0 0 0 0 0 0 0 0 0 0 0 0 0 0 0 0 0 0 0 0 0 0 0 0 0 0 0 0 0 0 0 0
-0 -0 0 -0 0 0 0 0 0 0 0 0 0 0 0 0 0 0 0 0 0 0 0 0 0 0 0 0 0 0 0 0 0 0 0 0 0 0 0 0 0 0 0 0 0
-0 -0 -0 -0 0 -0 0 0 0 0 0 0 0 0 0 0 0 0 0 0 0 0 0 0 0 0 0 0 0 0 0 0 0 0 0 0 0 0 0 0 0 0 0 0 0
-0 -0 0 0 0 0 0 0 0 0 0 0 0 0 0 0 0 0 0 0 0 0 0 0 0 0 0 0 0 0 0 0 0 0 0 0 0 0 0 0 0 0 0 0 0
-0 -0 0 0 -0 -0 0 0 0 0 0 0 0 0 0 0 0 0 0 0 0 0 0 0 0 0 0 0 0 0 0 0 0 0 0 0 0 0 0 0 0 0 0 0 0
-0 0 0 0 -0 -0 0 0 0 0 0 0 0 0 0 0 0 0 0 0 0 0 0 0 0 0 0 0 0 0 0 0 0 0 0 0 0 0 0 0 0 0 0 0 0
0 0 0 0 0 0 0 0 0 0 0 0 0 0 0 0 0 0 0 0 0 0 0 0 0 0 0 0 0 0 0 0 0 0 0 0 0 0 -0 0 0 0 0 0 0
0 0 0 0 0 0 0 0 0 0 0 0 0 0 0 0 0 0 0 0 0 0 0 0 0 0 0 0 0 0 0 0 0 0 0 0 0 0 0 0 0 0 0 -0 -0
0 0 0 0 0 0 0 0 0 0 0 0 0 0 0 0 0 0 0 0 0 0 0 0 0 0 0 0 0 0 0 0 0 0 0 0 0 0 -0 0 0 0 0 0 0
0 0 0 0 0 0 0 0 0 0 0 0 0 0 0 0 0 0 0 0 0 0 0 0 0 0 0 0 0 0 0 0 0 0 0 0 0 0 0 0 0 0 0 0 0
0 0 0 0 0 0 0 0 0 0 0 0 0 0 0 0 0 0 0 0 0 0 0 0 0 0 0 0 0 0 0 0 0 0 0 0 0 0 0 0 0 0 0 0 0
0 0 0 0 0 0 0 0 0 0 0 0 0 0 0 0 0 0 0 0 0 0 0 0 0 0 0 0 0 0 0 0 0 0 0 0 0 0 0 0 0 0 0 0 0
0 0 0 0 0 0 0 0 0 0 0 0 0 0 0 0 0 0 0 0 0 0 0 0 0 0 0 0 0 0 0 0 0 0 0 0 -0 0 0 0 0 0 0 0 0
0 0 0 0 0 0 0 0 0 0 0 0 0 0 0 0 0 0 0 0 0 0 0 0 0 0 0 0 0 0 0 0 0 0 0 0 0 0 0 0 0 0 0 0 0
Wind_Speed_500mb
45 37 30 26 21 20 17 16 14 13 15 6 9 12 12 13 15 21 27 18 20 25 16 17 19 24 24 16 13 14 8 13 15 12 11 8 7 17 18 24 17 16 22 25 34
49 42 34 27 23 18 17 16 13 13 11 5 9 11 13 14 20 19 9 13 19 33 23 21 24 26 15 14 12 10 10 17 8 12 16 25 24 23 16 27 30 32 36 37 36
53 46 38 30 24 21 17 15 14 12 10 7 6 9 9 13 2 3 8 16 19 36 24 21 21 18 10 13 10 8 13 10 12 19 19 23 25 25 23 29 30 35 43 39 37
57 51 41 32 26 22 17 14 14 14 10 7 6 8 7 2 7 5 13 21 26 29 24 22 22 15 10 12 12 8 12 11 9 18 22 22 20 22 29 37 41 39 42 44 40
58 53 44 34 26 22 19 17 17 14 11 7 6 6 7 7 6 10 14 16 20 20 20 23 25 12 9 8 13 11 7 11 21 21 27 31 28 27 22 30 23 36 32 35 33
58 56 48 38 28 23 19 16 16 17 14 10 7 6 6 7 14 15 12 10 17 29 28 25 14 11 12 7 8 12 6 8 15 23 17 23 35 6 14 27 31 30 34 28 33
56 58 54 45 33 26 23 17 16 18 16 12 9 9 14 12 17 21 19 14 23 25 20 12 10 6 15 11 6 5 8 9 25 15 15 13 23 18 31 14 20 27 26 28 27
55 60 59 51 40 30 23 21 22 20 18 13 9 9 11 13 24 25 24 22 25 21 15 5 6 4 2 13 6 6 6 8 3 7 5 12 23 17 10 22 29 30 26 31 26
49 59 63 57 45 31 29 26 25 16 15 12 9 8 10 11 27 29 24 24 25 16 10 7 4 5 5 4 4 5 8 4 10 6 8 9 15 19 42 36 34 27 29 33 37
48 58 62 62 54 34 23 26 24 16 10 10 15 9 7 5 16 28 30 23 17 15 11 9 6 7 5 10 8 9 7 6 14 4 13 28 28 22 33 27 30 31 30 38 41
51 58 61 60 58 37 16 15 12 7 10 16 9 8 12 3 10 15 35 31 15 4 14 4 11 22 26 19 8 8 11 18 23 26 10 23 24 24 34 38 37 34 32 33 45
52 53 56 57 58 30 14 8 6 16 19 33 38 44 32 12 1 13 25 21 13 18 9 7 22 24 16 15 15 14 18 22 23 22 14 24 29 31 29 24 24 31 41 53 55
54 54 54 54 45 20 10 7 6 18 9 13 11 12 21 38 14 15 31 22 14 15 18 22 6 17 17 17 18 20 20 21 22 18 16 23 30 19 17 27 34 38 43 49 51
56 53 56 54 24 30 9 14 9 10 5 6 6 6 17 18 11 31 37 24 9 25 15 17 26 24 16 21 21 25 21 26 21 16 21 8 19 33 23 17 17 37 42 38 47
59 57 54 49 44 22 9 7 8 0 3 3 6 10 18 19 10 13 39 24 21 14 13 8 10 13 16 17 24 17 9 17 21 22 16 27 26 6 22 33 27 16 38 47 49
65 58 54 43 33 7 18 5 8 3 4 5 9 6 7 8 1 10 17 10 9 12 15 21 6 8 14 4 19 4 9 8 4 10 25 31 27 11 15 25 22 33 24 34 47
73 57 38 30 5 18 14 13 4 6 8 9 8 5 8 5 10 6 13 19 19 11 20 23 33 22 19 26 13 12 13 13 14 16 25 10 21 25 29 32 24 18 21 36 48
66 26 15 7 17 22 14 4 6 4 7 11 18 13 1 4 7 7 4 10 13 17 16 12 17 9 10 24 19 17 20 15 18 23 32 24 17 18 10 29 30 24 24 39 49
34 35 36 12 19 18 8 4 1 1 4 12 15 4 8 5 2 3 9 6 3 14 14 11 10 3 5 3 4 11 14 2 13 11 21 21 29 22 25 21 15 21 34 47 53
32 12 41 17 12 8 3 2 3 6 8 9 6 14 11 2 10 9 4 7 3 6 8 7 11 3 4 5 11 6 15 6 3 15 32 20 31 23 29 14 20 26 37 48 51
24 7 31 1 7 7 1 3 5 14 14 5 9 5 15 22 20 9 5 2 6 1 5 1 9 10 3 12 22 8 8 3 2 5 12 24 12 5 19 24 31 22 42 46 43
24 3 29 2 5 5 4 10 16 6 10 4 2 6 14 13 11 9 20 14 26 4 14 3 6 17 30 22 7 10 19 17 12 13 10 16 35 30 38 22 16 39 55 43 33
25 12 21 6 4 6 9 10 9 12 3 2 7 11 3 6 9 16 14 4 7 5 4 2 4 11 8 8 6 11 12 14 9 12 31 30 27 9 12 30 50 51 45 31 30
15 8 14 23 15 8 12 7 9 23 17 9 10 10 9 12 20 11 14 7 14 7 17 2 11 23 23 20 10 15 21 28 27 17 32 37 57 50 43 42 43 45 31 29 31
15 6 7 7 7 12 3 8 19 9 5 5 5 7 3 6 8 13 24 32 31 25 21 17 23 31 37 41 36 31 30 28 34 42 40 50 49 48 48 44 43 33 30 29 32
7 7 7 8 8 8 4 3 12 11 7 4 8 18 17 10 14 9 9 14 12 9 18 6 21 9 24 23 27 37 41 43 45 48 48 51 59 42 35 24 26 33 33 37 43
7 7 2 5 6 4 1 8 13 20 11 17 12 16 15 26 34 34 37 35 32 28 21 11 11 11 26 15 18 25 36 38 40 38 31 36 39 21 25 28 36 38 38 49 56
Wind_Direction_500mb
6 3 0 348 337 326 314 308 299 280 262 335 289 277 272 266 266 263 260 246 217 209 182 159 168 186 189 174 161 156 191 223 232 220 235 226 287 309 306 288 297 297 280 306 314
9 6 5 2 350 340 328 315 308 303 310 296 286 280 275 281 289 274 225 204 198 187 170 161 157 154 151 154 166 186 213 216 221 233 260 276 291 296 288 291 289 285 277 292 303
9 7 5 3 360 351 344 336 326 321 316 313 286 269 276 306 332 79 153 170 168 170 173 173 161 151 131 156 162 156 225 198 228 241 260 271 276 280 280 282 279 285 296 296 296
9 5 3 4 6 5 3 359 353 342 338 321 278 261 268 306 140 118 139 152 153 171 175 172 161 146 146 162 161 187 237 203 262 251 267 264 283 272 261 268 283 283 290 295 293
11 8 1 1 3 7 5 6 5 0 346 323 286 261 263 254 205 151 144 151 175 181 181 168 155 142 158 154 145 194 231 211 254 267 261 267 253 260 266 274 291 300 296 297 295
12 13 8 358 352 350 356 352 353 360 352 336 307 269 243 252 173 168 156 140 155 150 148 147 167 157 121 140 192 171 222 251 271 263 262 269 273 227 242 279 284 289 292 292 298
11 10 8 0 348 339 340 343 339 334 340 335 311 287 256 221 183 179 173 153 144 147 148 137 119 141 143 147 153 161 258 256 236 254 244 251 268 242 269 288 296 299 294 291 293
12 10 4 0 350 333 325 328 325 315 308 311 292 294 256 198 188 184 184 176 170 165 133 95 133 119 136 130 99 196 203 265 153 206 236 196 266 287 309 324 315 307 309 310 316
2 3 2 356 350 335 316 316 319 300 291 274 278 286 267 212 198 188 185 173 168 177 169 212 176 115 126 180 267 32 262 264 305 193 280 229 298 298 300 308 309 306 299 307 314
345 347 351 351 344 332 310 312 319 308 264 250 255 287 243 159 173 199 193 176 163 152 146 155 131 173 132 190 230 169 203 234 261 246 289 296 289 291 306 312 302 298 293 299 304
334 336 339 340 340 323 287 310 336 308 258 233 231 243 263 263 227 197 203 197 191 138 196 117 209 217 213 209 221 238 242 257 265 273 276 278 285 290 302 304 303 303 298 288 294
333 334 336 339 338 319 247 248 268 302 296 283 259 255 237 182 0 185 187 179 183 207 149 199 243 239 213 202 218 220 256 263 272 262 215 278 277 289 282 279 279 288 295 297 296
332 333 331 340 342 356 239 205 281 325 285 295 241 230 232 221 228 212 176 172 186 193 202 224 210 103 194 211 228 234 236 261 271 303 245 279 280 270 270 247 272 276 275 278 283
327 326 328 331 336 327 276 194 289 313 330 272 235 182 159 156 216 208 189 173 184 217 190 242 249 246 226 240 220 263 229 254 270 281 290 12 291 295 297 275 266 283 298 313 308
323 322 318 318 313 303 200 202 296 242 18 60 82 124 166 184 136 189 195 198 206 179 188 209 182 169 204 233 185 255 204 255 277 270 290 279 279 226 285 293 291 329 326 327 329
328 325 314 307 310 230 182 216 144 207 256 42 120 140 161 240 13 110 178 201 208 209 232 258 254 239 255 192 205 154 260 287 268 279 262 270 261 290 291 291 298 311 325 338 343
335 327 308 294 256 153 163 149 176 231 338 22 22 345 250 238 231 221 178 193 211 194 235 255 244 256 232 256 189 214 255 271 258 239 267 329 289 270 290 282 296 289 315 333 331
348 6 22 63 166 159 145 125 226 68 34 1 346 338 237 39 7 355 156 221 220 237 262 261 271 214 186 226 248 207 218 232 267 273 286 306 264 288 285 300 298 284 320 334 336
10 47 34 33 150 155 151 175 281 142 57 7 360 52 300 73 24 321 322 288 264 182 224 199 248 267 50 123 232 155 211 308 275 243 275 264 269 272 272 290 338 341 343 346 336
356 14 22 81 105 124 85 262 99 37 34 40 126 356 349 110 210 302 301 288 261 230 251 197 268 204 111 103 60 233 137 189 213 283 283 273 283 271 287 292 318 325 337 337 330
357 55 7 4 43 49 92 20 7 64 85 113 167 240 278 285 291 301 237 164 358 28 358 166 250 237 223 229 248 177 199 105 317 212 273 297 267 205 271 296 304 301 322 325 324
1 32 5 6 26 29 48 340 340 6 49 171 151 232 239 254 283 242 255 257 289 230 272 4 262 257 260 271 274 261 240 216 224 226 235 264 280 275 273 282 259 293 312 313 315
351 322 6 47 52 31 346 335 331 7 22 138 206 199 215 277 279 295 273 318 218 196 155 123 244 277 250 208 188 235 206 218 231 255 249 263 267 189 215 295 298 303 306 305 318
359 344 6 52 68 38 3 325 336 342 312 266 260 276 259 246 204 269 238 276 329 347 346 317 258 255 259 288 304 263 240 228 224 236 262 252 273 279 288 293 303 300 293 304 314
19 50 10 347 14 351 292 311 307 299 258 13 280 300 164 257 239 228 255 263 280 309 287 240 245 256 258 264 268 264 258 245 229 243 253 273 275 287 296 297 292 285 287 302 313
40 1 355 308 295 325 236 269 291 353 335 295 253 292 234 232 253 275 278 279 275 276 274 228 256 239 266 274 272 270 263 256 253 253 257 264 277 287 295 284 267 273 287 298 305
41 19 25 305 313 280 182 10 322 338 284 253 345 327 273 268 277 286 271 260 255 267 271 252 247 266 277 299 296 270 260 260 258 257 259 261 273 313 281 279 278 287 290 296 301
Wind_Speed_850mb
45 37 30 26 21 20 17 16 14 13 15 6 9 12 12 13 15 21 27 18 20 25 16 17 19 24 24 16 13 14 8 13 15 12 11 8 7 17 18 24 17 16 22 25 34
49 42 34 27 23 18 17 16 13 13 11 5 9 11 13 14 20 19 9 13 19 33 23 21 24 26 15 14 12 10 10 17 8 12 16 25 24 23 16 27 30 32 36 37 36
53 46 38 30 24 21 17 15 14 12 10 7 6 9 9 13 2 3 8 16 19 36 24 21 21 18 10 13 10 8 13 10 12 19 19 23 25 25 23 29 30 35 43 39 37
57 51 41 32 26 22 17 14 14 14 10 7 6 8 7 2 7 5 13 21 26 29 24 22 22 15 10 12 12 8 12 11 9 18 22 22 20 22 29 37 41 39 42 44 40
58 53 44 34 26 22 19 17 17 14 11 7 6 6 7 7 6 10 14 16 20 20 20 23 25 12 9 8 13 11 7 11 21 21 27 31 28 27 22 30 23 36 32 35 33
58 56 48 38 28 23 19 16 16 17 14 10 7 6 6 7 14 15 12 10 17 29 28 25 14 11 12 7 8 12 6 8 15 23 17 23 35 6 14 27 31 30 34 28 33
56 58 54 45 33 26 23 17 16 18 16 12 9 9 14 12 17 21 19 14 23 25 20 12 10 6 15 11 6 5 8 9 25 15 15 13 23 18 31 14 20 27 26 28 27
55 60 59 51 40 30 23 21 22 20 18 13 9 9 11 13 24 25 24 22 25 21 15 5 6 4 2 13 6 6 6 8 3 7 5 12 23 17 10 22 29 30 26 31 26
49 59 63 57 45 31 29 26 25 16 15 12 9 8 10 11 27 29 24 24 25 16 10 7 4 5 5 4 4 5 8 4 10 6 8 9 15 19 42 36 34 27 29 33 37
48 58 62 62 54 34 23 26 24 16 10 10 15 9 7 5 16 28 30 23 17 15 11 9 6 7 5 10 8 9 7 6 14 4 13 28 28 22 33 27 30 31 30 38 41
51 58 61 60 58 37 16 15 12 7 10 16 9 8 12 3 10 15 35 31 15 4 14 4 11 22 26 19 8 8 11 18 23 26 10 23 24 24 34 38 37 34 32 33 45
52 53 56 57 58 30 14 8 6 16 19 33 38 44 32 12 1 13 25 21 13 18 9 7 22 24 16 15 15 14 18 22 23 22 14 24 29 31 29 24 24 31 41 53 55
54 54 54 54 45 20 10 7 6 18 9 13 11 12 21 38 14 15 31 22 14 15 18 22 6 17 17 17 18 20 20 21 22 18 16 23 30 19 17 27 34 38 43 49 51
56 53 56 54 24 30 9 14 9 10 5 6 6 6 17 18 11 31 37 24 9 25 15 17 26 24 16 21 21 25 21 26 21 16 21 8 19 33 23 17 17 37 42 38 47
59 57 54 49 44 22 9 7 8 0 3 3 6 10 18 19 10 13 39 24 21 14 13 8 10 13 16 17 24 17 9 17 21 22 16 27 26 6 22 33 27 16 38 47 49
65 58 54 43 33 7 18 5 8 3 4 5 9 6 7 8 1 10 17 10 9 12 15 21 6 8 14 4 19 4 9 8 4 10 25 31 27 11 15 25 22 33 24 34 47
73 57 38 30 5 18 14 13 4 6 8 9 8 5 8 5 10 6 13 19 19 11 20 23 33 22 19 26 13 12 13 13 14 16 25 10 21 25 29 32 24 18 21 36 48
66 26 15 7 17 22 14 4 6 4 7 11 18 13 1 4 7 7 4 10 13 17 16 12 17 9 10 24 19 17 20 15 18 23 32 24 17 18 10 29 30 24 24 39 49
34 35 36 12 19 18 8 4 1 1 4 12 15 4 8 5 2 3 9 6 3 14 14 11 10 3 5 3 4 11 14 2 13 11 21 21 29 22 25 21 15 21 34 47 53
32 12 41 17 12 8 3 2 3 6 8 9 6 14 11 2 10 9 4 7 3 6 8 7 11 3 4 5 11 6 15 6 3 15 32 20 31 23 29 14 20 26 37 48 51
24 7 31 1 7 7 1 3 5 14 14 5 9 5 15 22 20 9 5 2 6 1 5 1 9 10 3 12 22 8 8 3 2 5 12 24 12 5 19 24 31 22 42 46 43
24 3 29 2 5 5 4 10 16 6 10 4 2 6 14 13 11 9 20 14 26 4 14 3 6 17 30 22 7 10 19 17 12 13 10 16 35 30 38 22 16 39 55 43 33
25 12 21 6 4 6 9 10 9 12 3 2 7 11 3 6 9 16 14 4 7 5 4 2 4 11 8 8 6 11 12 14 9 12 31 30 27 9 12 30 50 51 45 31 30
15 8 14 23 15 8 12 7 9 23 17 9 10 10 9 12 20 11 14 7 14 7 17 2 11 23 23 20 10 15 21 28 27 17 32 37 57 50 43 42 43 45 31 29 31
15 6 7 7 7 12 3 8 19 9 5 5 5 7 3 6 8 13 24 32 31 25 21 17 23 31 37 41 36 31 30 28 34 42 40 50 49 48 48 44 43 33 30 29 32
7 7 7 8 8 8 4 3 12 11 7 4 8 18 17 10 14 9 9 14 12 9 18 6 21 9 24 23 27 37 41 43 45 48 48 51 59 42 35 24 26 33 33 37 43
7 7 2 5 6 4 1 8 13 20 11 17 12 16 15 26 34 34 37 35 32 28 21 11 11 11 26 15 18 25 36 38 40 38 31 36 39 21 25 28 36 38 38 49 56
Wind_Direction_850mb
6 3 0 348 337 326 314 308 299 280 262 335 289 277 272 266 266 263 260 246 217 209 182 159 168 186 189 174 161 156 191 223 232 220 235 226 287 309 306 288 297 297 280 306 314
9 6 5 2 350 340 328 315 308 303 310 296 286 280 275 281 289 274 225 204 198 187 170 161 157 154 151 154 166 186 213 216 221 233 260 276 291 296 288 291 289 285 277 292 303
9 7 5 3 360 351 344 336 326 321 316 313 286 269 276 306 332 79 153 170 168 170 173 173 161 151 131 156 162 156 225 198 228 241 260 271 276 280 280 282 279 285 296 296 296
9 5 3 4 6 5 3 359 353 342 338 321 278 261 268 306 140 118 139 152 153 171 175 172 161 146 146 162 161 187 237 203 262 251 267 264 283 272 261 268 283 283 290 295 293
11 8 1 1 3 7 5 6 5 0 346 323 286 261 263 254 205 151 144 151 175 181 181 168 155 142 158 154 145 194 231 211 254 267 261 267 253 260 266 274 291 300 296 297 295
12 13 8 358 352 350 356 352 353 360 352 336 307 269 243 252 173 168 156 140 155 150 148 147 167 157 121 140 192 171 222 251 271 263 262 269 273 227 242 279 284 289 292 292 298
11 10 8 0 348 339 340 343 339 334 340 335 311 287 256 221 183 179 173 153 144 147 148 137 119 141 143 147 153 161 258 256 236 254 244 251 268 242 269 288 296 299 294 291 293
12 10 4 0 350 333 325 328 325 315 308 311 292 294 256 198 188 184 184 176 170 165 133 95 133 119 136 130 99 196 203 265 153 206 236 196 266 287 309 324 315 307 309 310 316
2 3 2 356 350 335 316 316 319 300 291 274 278 286 267 212 198 188 185 173 168 177 169 212 176 115 126 180 267 32 262 264 305 193 280 229 298 298 300 308 309 306 299 307 314
345 347 351 351 344 332 310 312 319 308 264 250 255 287 243 159 173 199 193 176 163 152 146 155 131 173 132 190 230 169 203 234 261 246 289 296 289 291 306 312 302 298 293 299 304
334 336 339 340 340 323 287 310 336 308 258 233 231 243 263 263 227 197 203 197 191 138 196 117 209 217 213 209 221 238 242 257 265 273 276 278 285 290 302 304 303 303 298 288 294
333 334 336 339 338 319 247 248 268 302 296 283 259 255 237 182 0 185 187 179 183 207 149 199 243 239 213 202 218 220 256 263 272 262 215 278 277 289 282 279 279 288 295 297 296
332 333 331 340 342 356 239 205 281 325 285 295 241 230 232 221 228 212 176 172 186 193 202 224 210 103 194 211 228 234 236 261 271 303 245 279 280 270 270 247 272 276 275 278 283
327 326 328 331 336 327 276 194 289 313 330 272 235 182 159 156 216 208 189 173 184 217 190 242 249 246 226 240 220 263 229 254 270 281 290 12 291 295 297 275 266 283 298 313 308
323 322 318 318 313 303 200 202 296 242 18 60 82 124 166 184 136 189 195 198 206 179 188 209 182 169 204 233 185 255 204 255 277 270 290 279 279 226 285 293 291 329 326 327 329
328 325 314 307 310 230 182 216 144 207 256 42 120 140 161 240 13 110 178 201 208 209 232 258 254 239 255 192 205 154 260 287 268 279 262 270 261 290 291 291 298 311 325 338 343
335 327 308 294 256 153 163 149 176 231 338 22 22 345 250 238 231 221 178 193 211 194 235 255 244 256 232 256 189 214 255 271 258 239 267 329 289 270 290 282 296 289 315 333 331
348 6 22 63 166 159 145 125 226 68 34 1 346 338 237 39 7 355 156 221 220 237 262 261 271 214 186 226 248 207 218 232 267 273 286 306 264 288 285 300 298 284 320 334 336
10 47 34 33 150 155 151 175 281 142 57 7 360 52 300 73 24 321 322 288 264 182 224 199 248 267 50 123 232 155 211 308 275 243 275 264 269 272 272 290 338 341 343 346 336
356 14 22 81 105 124 85 262 99 37 34 40 126 356 349 110 210 302 301 288 261 230 251 197 268 204 111 103 60 233 137 189 213 283 283 273 283 271 287 292 318 325 337 337 330
357 55 7 4 43 49 92 20 7 64 85 113 167 240 278 285 291 301 237 164 358 28 358 166 250 237 223 229 248 177 199 105 317 212 273 297 267 205 271 296 304 301 322 325 324
1 32 5 6 26 29 48 340 340 6 49 171 151 232 239 254 283 242 255 257 289 230 272 4 262 257 260 271 274 261 240 216 224 226 235 264 280 275 273 282 259 293 312 313 315
351 322 6 47 52 31 346 335 331 7 22 138 206 199 215 277 279 295 273 318 218 196 155 123 244 277 250 208 188 235 206 218 231 255 249 263 267 189 215 295 298 303 306 305 318
359 344 6 52 68 38 3 325 336 342 312 266 260 276 259 246 204 269 238 276 329 347 346 317 258 255 259 288 304 263 240 228 224 236 262 252 273 279 288 293 303 300 293 304 314
19 50 10 347 14 351 292 311 307 299 258 13 280 300 164 257 239 228 255 263 280 309 287 240 245 256 258 264 268 264 258 245 229 243 253 273 275 287 296 297 292 285 287 302 313
40 1 355 308 295 325 236 269 291 353 335 295 253 292 234 232 253 275 278 279 275 276 274 228 256 239 266 274 272 270 263 256 253 253 257 264 277 287 295 284 267 273 287 298 305
41 19 25 305 313 280 182 10 322 338 284 253 345 327 273 268 277 286 271 260 255 267 271 252 247 266 277 299 296 270 260 260 258 257 259 261 273 313 281 279 278 287 290 296 301